Year,Month,Day,Hour,Minute,Value (Times are PST for windgust in km/hr)
2002,05,02,00,00,13.00
2002,05,02,00,01,11.20
2002,05,02,00,02,9.70
2002,05,02,00,03,13.00
2002,05,02,00,04,13.00
2002,05,02,00,05,16.20
2002,05,02,00,06,13.00
2002,05,02,00,07,9.70
2002,05,02,00,08,13.00
2002,05,02,00,09,11.20
2002,05,02,00,10,11.20
2002,05,02,00,11,9.70
2002,05,02,00,12,16.20
2002,05,02,00,13,9.70
2002,05,02,00,14,7.90
2002,05,02,00,15,11.20
2002,05,02,00,16,11.20
2002,05,02,00,17,7.90
2002,05,02,00,18,13.00
2002,05,02,00,19,11.20
2002,05,02,00,20,9.70
2002,05,02,00,21,9.70
2002,05,02,00,22,9.70
2002,05,02,00,23,9.70
2002,05,02,00,24,7.90
2002,05,02,00,25,9.70
2002,05,02,00,26,11.20
2002,05,02,00,27,11.20
2002,05,02,00,28,7.90
2002,05,02,00,29,9.70
2002,05,02,00,30,7.90
2002,05,02,00,31,9.70
2002,05,02,00,32,11.20
2002,05,02,00,33,11.20
2002,05,02,00,34,11.20
2002,05,02,00,35,11.20
2002,05,02,00,36,13.00
2002,05,02,00,37,16.20
2002,05,02,00,38,16.20
2002,05,02,00,39,13.00
2002,05,02,00,40,4.70
2002,05,02,00,41,13.00
2002,05,02,00,42,9.70
2002,05,02,00,43,11.20
2002,05,02,00,44,11.20
2002,05,02,00,45,11.20
2002,05,02,00,46,11.20
2002,05,02,00,47,17.60
2002,05,02,00,48,13.00
2002,05,02,00,49,11.20
2002,05,02,00,50,7.90
2002,05,02,00,51,16.20
2002,05,02,00,52,16.20
2002,05,02,00,53,17.60
2002,05,02,00,54,17.60
2002,05,02,00,55,13.00
2002,05,02,00,56,13.00
2002,05,02,00,57,13.00
2002,05,02,00,58,11.20
2002,05,02,00,59,19.40
2002,05,02,01,00,11.20
2002,05,02,01,01,16.20
2002,05,02,01,02,9.70
2002,05,02,01,03,11.20
2002,05,02,01,04,13.00
2002,05,02,01,05,13.00
2002,05,02,01,06,17.60
2002,05,02,01,07,9.70
2002,05,02,01,08,13.00
2002,05,02,01,09,17.60
2002,05,02,01,10,16.20
2002,05,02,01,11,19.40
2002,05,02,01,12,11.20
2002,05,02,01,13,9.70
2002,05,02,01,14,13.00
2002,05,02,01,15,11.20
2002,05,02,01,16,7.90
2002,05,02,01,17,16.20
2002,05,02,01,18,11.20
2002,05,02,01,19,13.00
2002,05,02,01,20,11.20
2002,05,02,01,21,7.90
2002,05,02,01,22,17.60
2002,05,02,01,23,11.20
2002,05,02,01,24,11.20
2002,05,02,01,25,13.00
2002,05,02,01,26,9.70
2002,05,02,01,27,11.20
2002,05,02,01,28,9.70
2002,05,02,01,29,11.20
2002,05,02,01,30,9.70
2002,05,02,01,31,17.60
2002,05,02,01,32,11.20
2002,05,02,01,33,9.70
2002,05,02,01,34,9.70
2002,05,02,01,35,16.20
2002,05,02,01,36,7.90
2002,05,02,01,37,11.20
2002,05,02,01,38,9.70
2002,05,02,01,39,13.00
2002,05,02,01,40,9.70
2002,05,02,01,41,13.00
2002,05,02,01,42,13.00
2002,05,02,01,43,7.90
2002,05,02,01,44,7.90
2002,05,02,01,45,13.00
2002,05,02,01,46,9.70
2002,05,02,01,47,11.20
2002,05,02,01,48,11.20
2002,05,02,01,49,16.20
2002,05,02,01,50,13.00
2002,05,02,01,51,11.20
2002,05,02,01,52,7.90
2002,05,02,01,53,9.70
2002,05,02,01,54,9.70
2002,05,02,01,55,7.90
2002,05,02,01,56,4.70
2002,05,02,01,57,3.20
2002,05,02,01,58,4.70
2002,05,02,01,59,4.70
2002,05,02,02,00,3.20
2002,05,02,02,01,9.70
2002,05,02,02,02,9.70
2002,05,02,02,03,7.90
2002,05,02,02,04,4.70
2002,05,02,02,05,9.70
2002,05,02,02,06,7.90
2002,05,02,02,07,3.20
2002,05,02,02,08,7.90
2002,05,02,02,09,7.90
2002,05,02,02,10,9.70
2002,05,02,02,11,9.70
2002,05,02,02,12,4.70
2002,05,02,02,13,11.20
2002,05,02,02,14,3.20
2002,05,02,02,15,7.90
2002,05,02,02,16,7.90
2002,05,02,02,17,3.20
2002,05,02,02,18,3.20
2002,05,02,02,19,3.20
2002,05,02,02,20,7.90
2002,05,02,02,21,9.70
2002,05,02,02,22,4.70
2002,05,02,02,23,7.90
2002,05,02,02,24,9.70
2002,05,02,02,25,3.20
2002,05,02,02,26,4.70
2002,05,02,02,27,4.70
2002,05,02,02,28,3.20
2002,05,02,02,29,4.70
2002,05,02,02,30,4.70
2002,05,02,02,31,7.90
2002,05,02,02,32,4.70
2002,05,02,02,33,4.70
2002,05,02,02,34,4.70
2002,05,02,02,35,4.70
2002,05,02,02,36,7.90
2002,05,02,02,37,9.70
2002,05,02,02,38,7.90
2002,05,02,02,39,9.70
2002,05,02,02,40,7.90
2002,05,02,02,41,9.70
2002,05,02,02,42,4.70
2002,05,02,02,43,7.90
2002,05,02,02,44,4.70
2002,05,02,02,45,7.90
2002,05,02,02,46,7.90
2002,05,02,02,47,4.70
2002,05,02,02,48,7.90
2002,05,02,02,49,9.70
2002,05,02,02,50,4.70
2002,05,02,02,51,4.70
2002,05,02,02,52,4.70
2002,05,02,02,53,11.20
2002,05,02,02,54,4.70
2002,05,02,02,55,3.20
2002,05,02,02,56,9.70
2002,05,02,02,57,3.20
2002,05,02,02,58,4.70
2002,05,02,02,59,4.70
2002,05,02,03,00,9.70
2002,05,02,03,01,4.70
2002,05,02,03,02,3.20
2002,05,02,03,03,7.90
2002,05,02,03,04,3.20
2002,05,02,03,05,4.70
2002,05,02,03,06,13.00
2002,05,02,03,07,11.20
2002,05,02,03,08,7.90
2002,05,02,03,09,11.20
2002,05,02,03,10,3.20
2002,05,02,03,11,4.70
2002,05,02,03,12,4.70
2002,05,02,03,13,4.70
2002,05,02,03,14,4.70
2002,05,02,03,15,7.90
2002,05,02,03,16,13.00
2002,05,02,03,17,11.20
2002,05,02,03,18,9.70
2002,05,02,03,19,9.70
2002,05,02,03,20,16.20
2002,05,02,03,21,16.20
2002,05,02,03,22,11.20
2002,05,02,03,23,7.90
2002,05,02,03,24,4.70
2002,05,02,03,25,13.00
2002,05,02,03,26,17.60
2002,05,02,03,27,9.70
2002,05,02,03,28,7.90
2002,05,02,03,29,4.70
2002,05,02,03,30,4.70
2002,05,02,03,31,7.90
2002,05,02,03,32,7.90
2002,05,02,03,33,13.00
2002,05,02,03,34,13.00
2002,05,02,03,35,13.00
2002,05,02,03,36,4.70
2002,05,02,03,37,11.20
2002,05,02,03,38,9.70
2002,05,02,03,39,4.70
2002,05,02,03,40,7.90
2002,05,02,03,41,7.90
2002,05,02,03,42,7.90
2002,05,02,03,43,16.20
2002,05,02,03,44,9.70
2002,05,02,03,45,11.20
2002,05,02,03,46,11.20
2002,05,02,03,47,11.20
2002,05,02,03,48,16.20
2002,05,02,03,49,16.20
2002,05,02,03,50,16.20
2002,05,02,03,51,9.70
2002,05,02,03,52,9.70
2002,05,02,03,53,11.20
2002,05,02,03,54,16.20
2002,05,02,03,55,13.00
2002,05,02,03,56,4.70
2002,05,02,03,57,11.20
2002,05,02,03,58,11.20
2002,05,02,03,59,4.70
2002,05,02,04,00,7.90
2002,05,02,04,01,7.90
2002,05,02,04,02,9.70
2002,05,02,04,03,19.40
2002,05,02,04,04,9.70
2002,05,02,04,05,9.70
2002,05,02,04,06,7.90
2002,05,02,04,07,4.70
2002,05,02,04,08,7.90
2002,05,02,04,09,13.00
2002,05,02,04,10,4.70
2002,05,02,04,11,19.40
2002,05,02,04,12,11.20
2002,05,02,04,13,16.20
2002,05,02,04,14,16.20
2002,05,02,04,15,4.70
2002,05,02,04,16,16.20
2002,05,02,04,17,11.20
2002,05,02,04,18,16.20
2002,05,02,04,19,7.90
2002,05,02,04,20,4.70
2002,05,02,04,21,4.70
2002,05,02,04,22,11.20
2002,05,02,04,23,3.20
2002,05,02,04,24,4.70
2002,05,02,04,25,11.20
2002,05,02,04,26,11.20
2002,05,02,04,27,4.70
2002,05,02,04,28,7.90
2002,05,02,04,29,9.70
2002,05,02,04,30,16.20
2002,05,02,04,31,11.20
2002,05,02,04,32,7.90
2002,05,02,04,33,7.90
2002,05,02,04,34,9.70
2002,05,02,04,35,9.70
2002,05,02,04,36,11.20
2002,05,02,04,37,9.70
2002,05,02,04,38,11.20
2002,05,02,04,39,11.20
2002,05,02,04,40,9.70
2002,05,02,04,41,4.70
2002,05,02,04,42,1.40
2002,05,02,04,43,7.90
2002,05,02,04,44,4.70
2002,05,02,04,45,7.90
2002,05,02,04,46,4.70
2002,05,02,04,47,3.20
2002,05,02,04,48,4.70
2002,05,02,04,49,4.70
2002,05,02,04,50,7.90
2002,05,02,04,51,7.90
2002,05,02,04,52,4.70
2002,05,02,04,53,11.20
2002,05,02,04,54,7.90
2002,05,02,04,55,9.70
2002,05,02,04,56,9.70
2002,05,02,04,57,13.00
2002,05,02,04,58,7.90
2002,05,02,04,59,7.90
2002,05,02,05,00,9.70
2002,05,02,05,01,13.00
2002,05,02,05,02,9.70
2002,05,02,05,03,13.00
2002,05,02,05,04,9.70
2002,05,02,05,05,9.70
2002,05,02,05,06,4.70
2002,05,02,05,07,9.70
2002,05,02,05,08,3.20
2002,05,02,05,09,16.20
2002,05,02,05,10,11.20
2002,05,02,05,11,7.90
2002,05,02,05,12,7.90
2002,05,02,05,13,9.70
2002,05,02,05,14,13.00
2002,05,02,05,15,9.70
2002,05,02,05,16,9.70
2002,05,02,05,17,7.90
2002,05,02,05,18,9.70
2002,05,02,05,19,7.90
2002,05,02,05,20,9.70
2002,05,02,05,21,13.00
2002,05,02,05,22,11.20
2002,05,02,05,23,11.20
2002,05,02,05,24,7.90
2002,05,02,05,25,11.20
2002,05,02,05,26,16.20
2002,05,02,05,27,11.20
2002,05,02,05,28,9.70
2002,05,02,05,29,11.20
2002,05,02,05,30,11.20
2002,05,02,05,31,13.00
2002,05,02,05,32,11.20
2002,05,02,05,33,7.90
2002,05,02,05,34,9.70
2002,05,02,05,35,17.60
2002,05,02,05,36,17.60
2002,05,02,05,37,16.20
2002,05,02,05,38,11.20
2002,05,02,05,39,9.70
2002,05,02,05,40,7.90
2002,05,02,05,41,9.70
2002,05,02,05,42,13.00
2002,05,02,05,43,9.70
2002,05,02,05,44,16.20
2002,05,02,05,45,9.70
2002,05,02,05,46,7.90
2002,05,02,05,47,13.00
2002,05,02,05,48,9.70
2002,05,02,05,49,7.90
2002,05,02,05,50,9.70
2002,05,02,05,51,7.90
2002,05,02,05,52,7.90
2002,05,02,05,53,9.70
2002,05,02,05,54,7.90
2002,05,02,05,55,13.00
2002,05,02,05,56,7.90
2002,05,02,05,57,7.90
2002,05,02,05,58,9.70
2002,05,02,05,59,11.20
2002,05,02,06,00,11.20
2002,05,02,06,01,11.20
2002,05,02,06,02,11.20
2002,05,02,06,03,7.90
2002,05,02,06,04,13.00
2002,05,02,06,05,9.70
2002,05,02,06,06,13.00
2002,05,02,06,07,9.70
2002,05,02,06,08,9.70
2002,05,02,06,09,11.20
2002,05,02,06,10,7.90
2002,05,02,06,11,1.40
2002,05,02,06,12,4.70
2002,05,02,06,13,9.70
2002,05,02,06,14,3.20
2002,05,02,06,15,9.70
2002,05,02,06,16,7.90
2002,05,02,06,17,3.20
2002,05,02,06,18,3.20
2002,05,02,06,19,7.90
2002,05,02,06,20,4.70
2002,05,02,06,21,4.70
2002,05,02,06,22,11.20
2002,05,02,06,23,16.20
2002,05,02,06,24,13.00
2002,05,02,06,25,9.70
2002,05,02,06,26,7.90
2002,05,02,06,27,9.70
2002,05,02,06,28,7.90
2002,05,02,06,29,7.90
2002,05,02,06,30,7.90
2002,05,02,06,31,4.70
2002,05,02,06,32,16.20
2002,05,02,06,33,3.20
2002,05,02,06,34,13.00
2002,05,02,06,35,11.20
2002,05,02,06,36,9.70
2002,05,02,06,37,11.20
2002,05,02,06,38,4.70
2002,05,02,06,39,17.60
2002,05,02,06,40,9.70
2002,05,02,06,41,11.20
2002,05,02,06,42,7.90
2002,05,02,06,43,7.90
2002,05,02,06,44,9.70
2002,05,02,06,45,11.20
2002,05,02,06,46,11.20
2002,05,02,06,47,13.00
2002,05,02,06,48,7.90
2002,05,02,06,49,11.20
2002,05,02,06,50,17.60
2002,05,02,06,51,7.90
2002,05,02,06,52,7.90
2002,05,02,06,53,7.90
2002,05,02,06,54,7.90
2002,05,02,06,55,7.90
2002,05,02,06,56,7.90
2002,05,02,06,57,11.20
2002,05,02,06,58,9.70
2002,05,02,06,59,7.90
2002,05,02,07,00,17.60
2002,05,02,07,01,16.20
2002,05,02,07,02,9.70
2002,05,02,07,03,11.20
2002,05,02,07,04,9.70
2002,05,02,07,05,16.20
2002,05,02,07,06,11.20
2002,05,02,07,07,7.90
2002,05,02,07,08,13.00
2002,05,02,07,09,16.20
2002,05,02,07,10,13.00
2002,05,02,07,11,11.20
2002,05,02,07,12,13.00
2002,05,02,07,13,11.20
2002,05,02,07,14,11.20
2002,05,02,07,15,9.70
2002,05,02,07,16,11.20
2002,05,02,07,17,16.20
2002,05,02,07,18,11.20
2002,05,02,07,19,16.20
2002,05,02,07,20,16.20
2002,05,02,07,21,13.00
2002,05,02,07,22,9.70
2002,05,02,07,23,13.00
2002,05,02,07,24,17.60
2002,05,02,07,25,11.20
2002,05,02,07,26,7.90
2002,05,02,07,27,11.20
2002,05,02,07,28,9.70
2002,05,02,07,29,20.90
2002,05,02,07,30,25.90
2002,05,02,07,31,9.70
2002,05,02,07,32,7.90
2002,05,02,07,33,16.20
2002,05,02,07,34,9.70
2002,05,02,07,35,11.20
2002,05,02,07,36,16.20
2002,05,02,07,37,20.90
2002,05,02,07,38,11.20
2002,05,02,07,39,7.90
2002,05,02,07,40,16.20
2002,05,02,07,41,13.00
2002,05,02,07,42,16.20
2002,05,02,07,43,19.40
2002,05,02,07,44,20.90
2002,05,02,07,45,17.60
2002,05,02,07,46,19.40
2002,05,02,07,47,9.70
2002,05,02,07,48,17.60
2002,05,02,07,49,20.90
2002,05,02,07,50,27.40
2002,05,02,07,51,11.20
2002,05,02,07,52,16.20
2002,05,02,07,53,17.60
2002,05,02,07,54,9.70
2002,05,02,07,55,11.20
2002,05,02,07,56,17.60
2002,05,02,07,57,17.60
2002,05,02,07,58,16.20
2002,05,02,07,59,11.20
2002,05,02,08,00,22.70
2002,05,02,08,01,19.40
2002,05,02,08,02,9.70
2002,05,02,08,03,13.00
2002,05,02,08,04,16.20
2002,05,02,08,05,19.40
2002,05,02,08,06,17.60
2002,05,02,08,07,9.70
2002,05,02,08,08,17.60
2002,05,02,08,09,22.70
2002,05,02,08,10,28.80
2002,05,02,08,11,22.70
2002,05,02,08,12,19.40
2002,05,02,08,13,11.20
2002,05,02,08,14,16.20
2002,05,02,08,15,16.20
2002,05,02,08,16,17.60
2002,05,02,08,17,13.00
2002,05,02,08,18,17.60
2002,05,02,08,19,16.20
2002,05,02,08,20,20.90
2002,05,02,08,21,13.00
2002,05,02,08,22,19.40
2002,05,02,08,23,16.20
2002,05,02,08,24,13.00
2002,05,02,08,25,13.00
2002,05,02,08,26,22.70
2002,05,02,08,27,17.60
2002,05,02,08,28,16.20
2002,05,02,08,29,20.90
2002,05,02,08,30,16.20
2002,05,02,08,31,27.40
2002,05,02,08,32,19.40
2002,05,02,08,33,16.20
2002,05,02,08,34,22.70
2002,05,02,08,35,17.60
2002,05,02,08,36,16.20
2002,05,02,08,37,17.60
2002,05,02,08,38,22.70
2002,05,02,08,39,13.00
2002,05,02,08,40,11.20
2002,05,02,08,41,11.20
2002,05,02,08,42,16.20
2002,05,02,08,43,22.70
2002,05,02,08,44,16.20
2002,05,02,08,45,13.00
2002,05,02,08,46,22.70
2002,05,02,08,47,20.90
2002,05,02,08,48,9.70
2002,05,02,08,49,16.20
2002,05,02,08,50,13.00
2002,05,02,08,51,16.20
2002,05,02,08,52,13.00
2002,05,02,08,53,11.20
2002,05,02,08,54,19.40
2002,05,02,08,55,17.60
2002,05,02,08,56,4.70
2002,05,02,08,57,16.20
2002,05,02,08,58,11.20
2002,05,02,08,59,17.60
2002,05,02,09,00,11.20
2002,05,02,09,01,13.00
2002,05,02,09,02,4.70
2002,05,02,09,03,1.40
2002,05,02,09,04,7.90
2002,05,02,09,05,11.20
2002,05,02,09,06,7.90
2002,05,02,09,07,16.20
2002,05,02,09,08,7.90
2002,05,02,09,09,9.70
2002,05,02,09,10,7.90
2002,05,02,09,11,20.90
2002,05,02,09,12,7.90
2002,05,02,09,13,11.20
2002,05,02,09,14,9.70
2002,05,02,09,15,9.70
2002,05,02,09,16,16.20
2002,05,02,09,17,11.20
2002,05,02,09,18,16.20
2002,05,02,09,19,13.00
2002,05,02,09,20,11.20
2002,05,02,09,21,13.00
2002,05,02,09,22,11.20
2002,05,02,09,23,7.90
2002,05,02,09,24,11.20
2002,05,02,09,25,16.20
2002,05,02,09,26,19.40
2002,05,02,09,27,13.00
2002,05,02,09,28,13.00
2002,05,02,09,29,19.40
2002,05,02,09,30,7.90
2002,05,02,09,31,17.60
2002,05,02,09,32,16.20
2002,05,02,09,33,13.00
2002,05,02,09,34,17.60
2002,05,02,09,35,17.60
2002,05,02,09,36,19.40
2002,05,02,09,37,11.20
2002,05,02,09,38,13.00
2002,05,02,09,39,13.00
2002,05,02,09,40,11.20
2002,05,02,09,41,11.20
2002,05,02,09,42,13.00
2002,05,02,09,43,13.00
2002,05,02,09,44,7.90
2002,05,02,09,45,16.20
2002,05,02,09,46,11.20
2002,05,02,09,47,9.70
2002,05,02,09,48,9.70
2002,05,02,09,49,13.00
2002,05,02,09,50,17.60
2002,05,02,09,51,16.20
2002,05,02,09,52,20.90
2002,05,02,09,53,17.60
2002,05,02,09,54,19.40
2002,05,02,09,55,17.60
2002,05,02,09,56,19.40
2002,05,02,09,57,16.20
2002,05,02,09,58,11.20
2002,05,02,09,59,17.60
2002,05,02,10,00,17.60
2002,05,02,10,01,13.00
2002,05,02,10,02,7.90
2002,05,02,10,03,13.00
2002,05,02,10,04,16.20
2002,05,02,10,05,11.20
2002,05,02,10,06,16.20
2002,05,02,10,07,11.20
2002,05,02,10,08,16.20
2002,05,02,10,09,19.40
2002,05,02,10,10,16.20
2002,05,02,10,11,20.90
2002,05,02,10,12,11.20
2002,05,02,10,13,4.70
2002,05,02,10,14,17.60
2002,05,02,10,15,13.00
2002,05,02,10,16,9.70
2002,05,02,10,17,19.40
2002,05,02,10,18,19.40
2002,05,02,10,19,13.00
2002,05,02,10,20,19.40
2002,05,02,10,21,13.00
2002,05,02,10,22,27.40
2002,05,02,10,23,19.40
2002,05,02,10,24,13.00
2002,05,02,10,25,16.20
2002,05,02,10,26,13.00
2002,05,02,10,27,9.70
2002,05,02,10,28,13.00
2002,05,02,10,29,13.00
2002,05,02,10,30,25.90
2002,05,02,10,31,7.90
2002,05,02,10,32,7.90
2002,05,02,10,33,17.60
2002,05,02,10,34,20.90
2002,05,02,10,35,16.20
2002,05,02,10,36,20.90
2002,05,02,10,37,19.40
2002,05,02,10,38,16.20
2002,05,02,10,39,16.20
2002,05,02,10,40,16.20
2002,05,02,10,41,25.90
2002,05,02,10,42,25.90
2002,05,02,10,43,20.90
2002,05,02,10,44,19.40
2002,05,02,10,45,17.60
2002,05,02,10,46,25.90
2002,05,02,10,47,22.70
2002,05,02,10,48,25.90
2002,05,02,10,49,28.80
2002,05,02,10,50,17.60
2002,05,02,10,51,33.80
2002,05,02,10,52,27.40
2002,05,02,10,53,33.80
2002,05,02,10,54,17.60
2002,05,02,10,55,16.20
2002,05,02,10,56,17.60
2002,05,02,10,57,19.40
2002,05,02,10,58,19.40
2002,05,02,10,59,11.20
2002,05,02,11,00,11.20
2002,05,02,11,01,22.70
2002,05,02,11,02,17.60
2002,05,02,11,03,22.70
2002,05,02,11,04,20.90
2002,05,02,11,05,20.90
2002,05,02,11,06,25.90
2002,05,02,11,07,22.70
2002,05,02,11,08,16.20
2002,05,02,11,09,22.70
2002,05,02,11,10,17.60
2002,05,02,11,11,16.20
2002,05,02,11,12,19.40
2002,05,02,11,13,19.40
2002,05,02,11,14,30.60
2002,05,02,11,15,22.70
2002,05,02,11,16,19.40
2002,05,02,11,17,11.20
2002,05,02,11,18,20.90
2002,05,02,11,19,30.60
2002,05,02,11,20,27.40
2002,05,02,11,21,16.20
2002,05,02,11,22,27.40
2002,05,02,11,23,19.40
2002,05,02,11,24,17.60
2002,05,02,11,25,22.70
2002,05,02,11,26,16.20
2002,05,02,11,27,16.20
2002,05,02,11,28,13.00
2002,05,02,11,29,13.00
2002,05,02,11,30,22.70
2002,05,02,11,31,22.70
2002,05,02,11,32,25.90
2002,05,02,11,33,27.40
2002,05,02,11,34,33.80
2002,05,02,11,35,30.60
2002,05,02,11,36,22.70
2002,05,02,11,37,16.20
2002,05,02,11,38,32.00
2002,05,02,11,39,17.60
2002,05,02,11,40,25.90
2002,05,02,11,41,27.40
2002,05,02,11,42,19.40
2002,05,02,11,43,28.80
2002,05,02,11,44,28.80
2002,05,02,11,45,17.60
2002,05,02,11,46,19.40
2002,05,02,11,47,22.70
2002,05,02,11,48,22.70
2002,05,02,11,49,17.60
2002,05,02,11,50,25.90
2002,05,02,11,51,20.90
2002,05,02,11,52,25.90
2002,05,02,11,53,22.70
2002,05,02,11,54,17.60
2002,05,02,11,55,20.90
2002,05,02,11,56,32.00
2002,05,02,11,57,32.00
2002,05,02,11,58,32.00
2002,05,02,11,59,25.90
2002,05,02,12,00,27.40
2002,05,02,12,01,19.40
2002,05,02,12,02,25.90
2002,05,02,12,03,20.90
2002,05,02,12,04,16.20
2002,05,02,12,05,13.00
2002,05,02,12,06,20.90
2002,05,02,12,07,13.00
2002,05,02,12,08,19.40
2002,05,02,12,09,19.40
2002,05,02,12,10,22.70
2002,05,02,12,11,19.40
2002,05,02,12,12,19.40
2002,05,02,12,13,22.70
2002,05,02,12,14,16.20
2002,05,02,12,15,17.60
2002,05,02,12,16,20.90
2002,05,02,12,17,11.20
2002,05,02,12,18,19.40
2002,05,02,12,19,25.90
2002,05,02,12,20,20.90
2002,05,02,12,21,13.00
2002,05,02,12,22,27.40
2002,05,02,12,23,27.40
2002,05,02,12,24,19.40
2002,05,02,12,25,20.90
2002,05,02,12,26,27.40
2002,05,02,12,27,27.40
2002,05,02,12,28,33.80
2002,05,02,12,29,17.60
2002,05,02,12,30,17.60
2002,05,02,12,31,28.80
2002,05,02,12,32,17.60
2002,05,02,12,33,19.40
2002,05,02,12,34,19.40
2002,05,02,12,35,25.90
2002,05,02,12,36,22.70
2002,05,02,12,37,25.90
2002,05,02,12,38,22.70
2002,05,02,12,39,28.80
2002,05,02,12,40,27.40
2002,05,02,12,41,19.40
2002,05,02,12,42,27.40
2002,05,02,12,43,33.80
2002,05,02,12,44,30.60
2002,05,02,12,45,41.80
2002,05,02,12,46,38.50
2002,05,02,12,47,38.50
2002,05,02,12,48,32.00
2002,05,02,12,49,28.80
2002,05,02,12,50,50.00
2002,05,02,12,51,43.60
2002,05,02,12,52,32.00
2002,05,02,12,53,19.40
2002,05,02,12,54,20.90
2002,05,02,12,55,19.40
2002,05,02,12,56,50.00
2002,05,02,12,57,20.90
2002,05,02,12,58,19.40
2002,05,02,12,59,32.00
2002,05,02,13,00,35.30
2002,05,02,13,01,32.00
2002,05,02,13,02,30.60
2002,05,02,13,03,27.40
2002,05,02,13,04,33.80
2002,05,02,13,05,22.70
2002,05,02,13,06,38.50
2002,05,02,13,07,30.60
2002,05,02,13,08,19.40
2002,05,02,13,09,33.80
2002,05,02,13,10,20.90
2002,05,02,13,11,27.40
2002,05,02,13,12,27.40
2002,05,02,13,13,35.30
2002,05,02,13,14,28.80
2002,05,02,13,15,22.70
2002,05,02,13,16,22.70
2002,05,02,13,17,32.00
2002,05,02,13,18,27.40
2002,05,02,13,19,22.70
2002,05,02,13,20,17.60
2002,05,02,13,21,28.80
2002,05,02,13,22,20.90
2002,05,02,13,23,27.40
2002,05,02,13,24,32.00
2002,05,02,13,25,25.90
2002,05,02,13,26,30.60
2002,05,02,13,27,25.90
2002,05,02,13,28,30.60
2002,05,02,13,29,27.40
2002,05,02,13,30,25.90
2002,05,02,13,31,30.60
2002,05,02,13,32,25.90
2002,05,02,13,33,22.70
2002,05,02,13,34,19.40
2002,05,02,13,35,16.20
2002,05,02,13,36,27.40
2002,05,02,13,37,35.30
2002,05,02,13,38,30.60
2002,05,02,13,39,25.90
2002,05,02,13,40,19.40
2002,05,02,13,41,22.70
2002,05,02,13,42,25.90
2002,05,02,13,43,33.80
2002,05,02,13,44,20.90
2002,05,02,13,45,19.40
2002,05,02,13,46,20.90
2002,05,02,13,47,11.20
2002,05,02,13,48,22.70
2002,05,02,13,49,22.70
2002,05,02,13,50,16.20
2002,05,02,13,51,20.90
2002,05,02,13,52,33.80
2002,05,02,13,53,17.60
2002,05,02,13,54,20.90
2002,05,02,13,55,30.60
2002,05,02,13,56,20.90
2002,05,02,13,57,17.60
2002,05,02,13,58,27.40
2002,05,02,13,59,35.30
2002,05,02,14,00,30.60
2002,05,02,14,01,40.30
2002,05,02,14,02,27.40
2002,05,02,14,03,19.40
2002,05,02,14,04,27.40
2002,05,02,14,05,28.80
2002,05,02,14,06,28.80
2002,05,02,14,07,28.80
2002,05,02,14,08,30.60
2002,05,02,14,09,27.40
2002,05,02,14,10,30.60
2002,05,02,14,11,25.90
2002,05,02,14,12,19.40
2002,05,02,14,13,20.90
2002,05,02,14,14,27.40
2002,05,02,14,15,28.80
2002,05,02,14,16,19.40
2002,05,02,14,17,17.60
2002,05,02,14,18,25.90
2002,05,02,14,19,22.70
2002,05,02,14,20,27.40
2002,05,02,14,21,22.70
2002,05,02,14,22,27.40
2002,05,02,14,23,22.70
2002,05,02,14,24,33.80
2002,05,02,14,25,22.70
2002,05,02,14,26,16.20
2002,05,02,14,27,13.00
2002,05,02,14,28,19.40
2002,05,02,14,29,27.40
2002,05,02,14,30,30.60
2002,05,02,14,31,27.40
2002,05,02,14,32,32.00
2002,05,02,14,33,27.40
2002,05,02,14,34,22.70
2002,05,02,14,35,25.90
2002,05,02,14,36,27.40
2002,05,02,14,37,27.40
2002,05,02,14,38,28.80
2002,05,02,14,39,27.40
2002,05,02,14,40,20.90
2002,05,02,14,41,30.60
2002,05,02,14,42,27.40
2002,05,02,14,43,27.40
2002,05,02,14,44,19.40
2002,05,02,14,45,33.80
2002,05,02,14,46,33.80
2002,05,02,14,47,27.40
2002,05,02,14,48,32.00
2002,05,02,14,49,28.80
2002,05,02,14,50,30.60
2002,05,02,14,51,25.90
2002,05,02,14,52,35.30
2002,05,02,14,53,20.90
2002,05,02,14,54,27.40
2002,05,02,14,55,28.80
2002,05,02,14,56,28.80
2002,05,02,14,57,25.90
2002,05,02,14,58,25.90
2002,05,02,14,59,11.20
2002,05,02,15,00,20.90
2002,05,02,15,01,19.40
2002,05,02,15,02,20.90
2002,05,02,15,03,20.90
2002,05,02,15,04,25.90
2002,05,02,15,05,19.40
2002,05,02,15,06,40.30
2002,05,02,15,07,28.80
2002,05,02,15,08,38.50
2002,05,02,15,09,30.60
2002,05,02,15,10,33.80
2002,05,02,15,11,40.30
2002,05,02,15,12,32.00
2002,05,02,15,13,22.70
2002,05,02,15,14,38.50
2002,05,02,15,15,30.60
2002,05,02,15,16,32.00
2002,05,02,15,17,25.90
2002,05,02,15,18,35.30
2002,05,02,15,19,38.50
2002,05,02,15,20,32.00
2002,05,02,15,21,22.70
2002,05,02,15,22,25.90
2002,05,02,15,23,33.80
2002,05,02,15,24,30.60
2002,05,02,15,25,32.00
2002,05,02,15,26,28.80
2002,05,02,15,27,32.00
2002,05,02,15,28,38.50
2002,05,02,15,29,32.00
2002,05,02,15,30,32.00
2002,05,02,15,31,40.30
2002,05,02,15,32,40.30
2002,05,02,15,33,40.30
2002,05,02,15,34,40.30
2002,05,02,15,35,50.00
2002,05,02,15,36,45.00
2002,05,02,15,37,43.60
2002,05,02,15,38,32.00
2002,05,02,15,39,38.50
2002,05,02,15,40,43.60
2002,05,02,15,41,41.80
2002,05,02,15,42,38.50
2002,05,02,15,43,33.80
2002,05,02,15,44,40.30
2002,05,02,15,45,28.80
2002,05,02,15,46,35.30
2002,05,02,15,47,43.60
2002,05,02,15,48,35.30
2002,05,02,15,49,40.30
2002,05,02,15,50,38.50
2002,05,02,15,51,40.30
2002,05,02,15,52,41.80
2002,05,02,15,53,40.30
2002,05,02,15,54,33.80
2002,05,02,15,55,27.40
2002,05,02,15,56,46.80
2002,05,02,15,57,43.60
2002,05,02,15,58,38.50
2002,05,02,15,59,33.80
2002,05,02,16,00,40.30
2002,05,02,16,01,30.60
2002,05,02,16,02,28.80
2002,05,02,16,03,25.90
2002,05,02,16,04,17.60
2002,05,02,16,05,30.60
2002,05,02,16,06,32.00
2002,05,02,16,07,40.30
2002,05,02,16,08,35.30
2002,05,02,16,09,40.30
2002,05,02,16,10,33.80
2002,05,02,16,11,30.60
2002,05,02,16,12,30.60
2002,05,02,16,13,33.80
2002,05,02,16,14,27.40
2002,05,02,16,15,35.30
2002,05,02,16,16,38.50
2002,05,02,16,17,38.50
2002,05,02,16,18,33.80
2002,05,02,16,19,35.30
2002,05,02,16,20,40.30
2002,05,02,16,21,30.60
2002,05,02,16,22,25.90
2002,05,02,16,23,22.70
2002,05,02,16,24,41.80
2002,05,02,16,25,30.60
2002,05,02,16,26,27.40
2002,05,02,16,27,35.30
2002,05,02,16,28,25.90
2002,05,02,16,29,25.90
2002,05,02,16,30,16.20
2002,05,02,16,31,32.00
2002,05,02,16,32,28.80
2002,05,02,16,33,30.60
2002,05,02,16,34,27.40
2002,05,02,16,35,22.70
2002,05,02,16,36,17.60
2002,05,02,16,37,25.90
2002,05,02,16,38,35.30
2002,05,02,16,39,27.40
2002,05,02,16,40,20.90
2002,05,02,16,41,25.90
2002,05,02,16,42,28.80
2002,05,02,16,43,40.30
2002,05,02,16,44,28.80
2002,05,02,16,45,27.40
2002,05,02,16,46,33.80
2002,05,02,16,47,45.00
2002,05,02,16,48,38.50
2002,05,02,16,49,45.00
2002,05,02,16,50,33.80
2002,05,02,16,51,20.90
2002,05,02,16,52,28.80
2002,05,02,16,53,30.60
2002,05,02,16,54,33.80
2002,05,02,16,55,25.90
2002,05,02,16,56,33.80
2002,05,02,16,57,40.30
2002,05,02,16,58,51.50
2002,05,02,16,59,40.30
2002,05,02,17,00,22.70
2002,05,02,17,01,40.30
2002,05,02,17,02,20.90
2002,05,02,17,03,19.40
2002,05,02,17,04,28.80
2002,05,02,17,05,27.40
2002,05,02,17,06,22.70
2002,05,02,17,07,27.40
2002,05,02,17,08,17.60
2002,05,02,17,09,32.00
2002,05,02,17,10,50.00
2002,05,02,17,11,46.80
2002,05,02,17,12,50.00
2002,05,02,17,13,43.60
2002,05,02,17,14,32.00
2002,05,02,17,15,48.20
2002,05,02,17,16,53.30
2002,05,02,17,17,51.50
2002,05,02,17,18,51.50
2002,05,02,17,19,35.30
2002,05,02,17,20,33.80
2002,05,02,17,21,35.30
2002,05,02,17,22,51.50
2002,05,02,17,23,30.60
2002,05,02,17,24,48.20
2002,05,02,17,25,61.20
2002,05,02,17,26,54.70
2002,05,02,17,27,48.20
2002,05,02,17,28,41.80
2002,05,02,17,29,46.80
2002,05,02,17,30,48.20
2002,05,02,17,31,54.70